| time (UTC) | temp F | wind direction | speed knots | gust knots | rain 1hr in | rain 24hr in | rain mn in | humidity % | barometer mb |
| 20260505124543 | 57 | 223 | 4.3 | 6.1 | 0.00 | 0.00 | 0.00 | 38 | 1003.4 |
| 20260505123037 | 57 | 231 | 3.5 | 6.1 | 0.00 | 0.00 | 0.00 | 38 | 1003.3 |
| 20260505121539 | 57 | 239 | 5.2 | 7.8 | 0.00 | 0.00 | 0.00 | 37 | 1003.0 |
| 20260505120038 | 57 | 236 | 1.7 | 4.3 | 0.00 | 0.00 | 0.00 | 37 | 1002.8 |
| 20260505114531 | 57 | 271 | 2.6 | 6.1 | 0.00 | 0.00 | 0.00 | 37 | 1002.6 |
| 20260505113033 | 57 | 191 | 2.6 | 5.2 | 0.00 | 0.00 | 0.00 | 37 | 1002.4 |
| 20260505111529 | 57 | 299 | 0.9 | 2.6 | 0.00 | 0.00 | 0.00 | 36 | 1002.7 |
| 20260505101525 | 59 | 269 | 5.2 | 8.7 | 0.00 | 0.00 | 0.00 | 33 | 1002.4 |
| 20260505100019 | 59 | 262 | 5.2 | 11.3 | 0.00 | 0.00 | 0.00 | 33 | 1002.2 |
| 20260505094525 | 59 | 270 | 5.2 | 7.8 | 0.00 | 0.00 | 0.00 | 33 | 1002.5 |
| 20260505093015 | 59 | 207 | 4.3 | 8.7 | 0.00 | 0.00 | 0.00 | 33 | 1002.4 |
| 20260505091514 | 59 | 229 | 0.0 | 8.7 | 0.00 | 0.00 | 0.00 | 33 | 1002.6 |
| 20260505090011 | 60 | 269 | 4.3 | 7.0 | 0.00 | 0.00 | 0.00 | 33 | 1002.8 |
| 20260505084509 | 60 | 291 | 4.3 | 10.4 | 0.00 | 0.00 | 0.00 | 32 | 1003.0 |
| 20260505083007 | 60 | 301 | 3.5 | 7.8 | 0.00 | 0.00 | 0.00 | 32 | 1002.9 |
| 20260505081506 | 61 | 246 | 8.7 | 13.9 | 0.00 | 0.00 | 0.00 | 31 | 1002.9 |
| 20260505080002 | 61 | 221 | 8.7 | 13.0 | 0.00 | 0.00 | 0.00 | 30 | 1003.0 |
| 20260505074600 | 62 | 274 | 8.7 | 13.9 | 0.00 | 0.00 | 0.00 | 30 | 1003.2 |
| 20260505073103 | 62 | 248 | 7.0 | 12.2 | 0.00 | 0.00 | 0.00 | 29 | 1003.1 |
| 20260505071555 | 62 | 269 | 9.6 | 15.6 | 0.00 | 0.00 | 0.00 | 28 | 1002.9 |
| 20260505070054 | 63 | 232 | 6.1 | 9.6 | 0.00 | 0.00 | 0.00 | 27 | 1002.7 |
| 20260505064548 | 63 | 214 | 5.2 | 8.7 | 0.00 | 0.00 | 0.00 | 27 | 1002.7 |
| 20260505063107 | 63 | 294 | 6.1 | 11.3 | 0.00 | 0.00 | 0.00 | 26 | 1002.5 |
| 20260505061545 | 64 | 257 | 8.7 | 13.0 | 0.00 | 0.00 | 0.00 | 25 | 1002.4 |
| 20260505060039 | 64 | 273 | 9.6 | 14.8 | 0.00 | 0.00 | 0.00 | 24 | 1002.2 |
| 20260505054540 | 65 | 278 | 7.0 | 12.2 | 0.00 | 0.00 | 0.00 | 24 | 1002.1 |
| 20260505053042 | 65 | 239 | 5.2 | 11.3 | 0.00 | 0.00 | 0.00 | 24 | 1002.0 |
| 20260505051538 | 65 | 263 | 7.8 | 13.0 | 0.00 | 0.00 | 0.00 | 24 | 1001.8 |
| 20260505041550 | 66 | 235 | 3.5 | 7.0 | 0.00 | 0.00 | 0.00 | 24 | 1001.8 |
| 20260505040045 | 67 | 265 | 3.5 | 9.6 | 0.00 | 0.00 | 0.00 | 23 | 1001.7 |
| 20260505034535 | 68 | 267 | 4.3 | 10.4 | 0.00 | 0.00 | 0.00 | 23 | 1001.7 |
| 20260505033033 | 68 | 328 | 4.3 | 8.7 | 0.00 | 0.00 | 0.00 | 22 | 1001.4 |
| 20260505031541 | 68 | 270 | 4.3 | 13.9 | 0.00 | 0.00 | 0.00 | 22 | 1001.1 |
| 20260505030032 | 69 | 312 | 7.0 | 15.6 | 0.00 | 0.00 | 0.00 | 21 | 1001.1 |
| 20260505024533 | 69 | 270 | 8.7 | 16.5 | 0.00 | 0.00 | 0.00 | 21 | 1000.8 |
| 20260505023031 | 70 | 319 | 9.6 | 16.5 | 0.00 | 0.00 | 0.00 | 20 | 1000.7 |
| 20260505021534 | 70 | 309 | 8.7 | 15.6 | 0.00 | 0.00 | 0.00 | 20 | 1000.6 |
| 20260505020029 | 70 | 325 | 7.8 | 16.5 | 0.00 | 0.00 | 0.00 | 20 | 1000.4 |
| 20260505014536 | 71 | 301 | 8.7 | 14.8 | 0.00 | 0.00 | 0.00 | 19 | 1000.4 |
| 20260505013028 | 71 | 323 | 11.3 | 18.2 | 0.00 | 0.00 | 0.00 | 18 | 1000.2 |
| 20260505011528 | 72 | 342 | 11.3 | 20.0 | 0.00 | 0.00 | 0.00 | 17 | 1000.0 |
| 20260505010027 | 72 | 309 | 5.2 | 16.5 | 0.00 | 0.00 | 0.00 | 16 | 1000.0 |
| 20260505004528 | 73 | 288 | 9.6 | 16.5 | 0.00 | 0.00 | 0.00 | 15 | 1000.1 |
| 20260505003025 | 73 | 290 | 13.9 | 20.9 | 0.00 | 0.00 | 0.00 | 14 | 1000.1 |
| 20260505001528 | 73 | 316 | 7.8 | 20.0 | 0.00 | 0.00 | 0.00 | 13 | 1000.3 |
| 20260505000025 | 73 | 283 | 8.7 | 17.4 | 0.00 | 0.00 | 0.00 | 13 | 1000.2 |
| 20260504234522 | 73 | 312 | 10.4 | 18.2 | 0.00 | 0.00 | 0.00 | 12 | 1000.3 |
| 20260504233023 | 73 | 277 | 9.6 | 15.6 | 0.00 | 0.00 | 0.00 | 12 | 1000.6 |
| 20260504231522 | 73 | 277 | 13.0 | 20.0 | 0.00 | 0.00 | 0.00 | 12 | 1000.3 |
| 20260504230020 | 73 | 266 | 15.6 | 25.2 | 0.00 | 0.00 | 0.00 | 12 | 1000.3 |
| 20260504224520 | 74 | 271 | 16.5 | 22.6 | 0.00 | 0.00 | 0.00 | 11 | 1000.4 |
| 20260504223026 | 74 | 279 | 13.9 | 21.7 | 0.00 | 0.00 | 0.00 | 12 | 1000.6 |
| 20260504221515 | 74 | 305 | 12.2 | 24.3 | 0.00 | 0.00 | 0.00 | 12 | 1000.7 |
| 20260504220016 | 74 | 312 | 9.6 | 25.2 | 0.00 | 0.00 | 0.00 | 13 | 1001.2 |
| 20260504214514 | 74 | 307 | 13.0 | 26.9 | 0.00 | 0.00 | 0.00 | 13 | 1001.5 |
| 20260504213020 | 74 | 304 | 2.6 | 13.9 | 0.00 | 0.00 | 0.00 | 16 | 1001.6 |
| 20260504211506 | 73 | 272 | 8.7 | 18.2 | 0.00 | 0.00 | 0.00 | 16 | 1001.9 |
| 20260504210003 | 74 | 255 | 13.0 | 20.0 | 0.00 | 0.00 | 0.00 | 16 | 1002.1 |
| 20260504204600 | 72 | 285 | 12.2 | 22.6 | 0.00 | 0.00 | 0.00 | 17 | 1002.6 |
| 20260504203110 | 73 | 249 | 10.4 | 24.3 | 0.00 | 0.00 | 0.00 | 17 | 1003.0 |
| 20260504201600 | 72 | 293 | 7.8 | 20.0 | 0.00 | 0.00 | 0.00 | 17 | 1003.5 |
| 20260504200106 | 72 | 277 | 9.6 | 21.7 | 0.00 | 0.00 | 0.00 | 17 | 1003.7 |
| 20260504194551 | 71 | 274 | 13.0 | 22.6 | 0.00 | 0.00 | 0.00 | 18 | 1003.8 |
| 20260504193053 | 70 | 320 | 6.1 | 24.3 | 0.00 | 0.00 | 0.00 | 20 | 1004.3 |
| 20260504191555 | 70 | 246 | 11.3 | 19.1 | 0.00 | 0.00 | 0.00 | 19 | 1004.5 |
| 20260504190047 | 70 | 262 | 10.4 | 19.1 | 0.00 | 0.00 | 0.00 | 20 | 1004.7 |
| 20260504184542 | 68 | 274 | 7.8 | 20.0 | 0.00 | 0.00 | 0.00 | 20 | 1005.3 |
| 20260504183041 | 68 | 281 | 9.6 | 14.8 | 0.00 | 0.00 | 0.00 | 20 | 1005.3 |
| 20260504181544 | 68 | 263 | 11.3 | 17.4 | 0.00 | 0.00 | 0.00 | 20 | 1005.5 |
| 20260504180037 | 68 | 316 | 7.8 | 14.8 | 0.00 | 0.00 | 0.00 | 20 | 1005.5 |
| 20260504174535 | 68 | 280 | 8.7 | 16.5 | 0.00 | 0.00 | 0.00 | 23 | 1005.6 |
| 20260504173033 | 67 | 277 | 5.2 | 13.9 | 0.00 | 0.00 | 0.00 | 22 | 1005.9 |
| 20260504171531 | 67 | 292 | 8.7 | 14.8 | 0.00 | 0.00 | 0.00 | 25 | 1006.0 |